This demonstration page uses our WeatherBlox Daily Observations layout. Learn more.

Left ArrowRight Arrow

Hourly Observations for June 24, 2017

Temp ( °F °C ) Dew Point ( °F °C ) Humidity (%) Winds ( mph kmh ) Pressure ( in mb ) Visibility ( mi km ) Precip ( " mm )
12:53 am 00:53 Mostly Cloudy 73 22.8 73 22.8 100 100 SW 5 7 29.95 1014 10 16 0.00 0.00
1:53 am 01:53 Cloudy 73 22.8 72 22.2 96 96 SW 7 11 29.93 1014 10 16 0.00 0.00
2:53 am 02:53 Cloudy 73 22.8 72 22.2 96 96 SW 7 11 29.94 1014 10 16 0.00 0.00
3:53 am 03:53 Cloudy 72 22.2 72 22.2 100 100 SW 6 9 29.93 1014 10 16 0.00 0.00
4:53 am 04:53 Cloudy 73 22.8 72 22.2 96 96 SW 6 9 29.93 1014 10 16 0.00 0.00
5:53 am 05:53 Cloudy with Light Rain 72 22.2 72 22.2 100 100 SW 5 7 29.94 1014 10 16 0.00 0.03
6:33 am 06:33 Cloudy 73 22.8 73 22.8 100 100 SW 5 7 29.94 1014 10 16 0.00 0.03
6:53 am 06:53 Cloudy 73 22.8 73 22.8 100 100 SW 3 6 29.95 1014 10 16 0.00 0.03
7:18 am 07:18 Cloudy with Light Rain 73 22.8 73 22.8 100 100 SSW 3 6 29.97 1015 10 16 0.00 0.03
7:53 am 07:53 Cloudy 73 22.8 73 22.8 100 100 SSW 5 7 29.97 1015 10 16 0.01 0.25
8:53 am 08:53 Cloudy 73 22.8 73 22.8 100 100 SW 5 7 29.99 1016 10 16 0.00 0.03
9:19 am 09:19 Cloudy 74 23.3 74 23.3 100 100 SSW 7 11 30.00 1016 7 11 0.00 0.00
9:26 am 09:26 Cloudy 74 23.3 74 23.3 100 100 SSW 7 11 29.97 1015 7 11 0.00 0.00
9:53 am 09:53 Cloudy 75 23.9 73 22.8 94 94 SW 5 7 29.98 1015 7 11 0.00 0.00
10:53 am 10:53 Cloudy 77 25 74 23.3 90 90 VRB 3 6 29.99 1016 7 11 0.00 0.00
11:07 am 11:07 Cloudy 76 24.4 74 23.3 94 94 WSW 3 6 30.00 1016 10 16 0.00 0.00
11:16 am 11:16 Cloudy 77 25 74 23.3 90 90 Calm 30.00 1016 10 16 0.00 0.00
11:25 am 11:25 Cloudy 77 25 74 23.3 90 90 W 3 6 30.00 1016 10 16 0.00 0.00
11:53 am 11:53 Cloudy 77 25 74 23.3 90 90 W 5 7 30.00 1016 7 11 0.00 0.00
12:53 pm 12:53 Cloudy 78 25.6 74 23.3 87 87 WSW 3 6 30.01 1016 7 11 0.00 0.00
1:53 pm 13:53 Partly Cloudy 82 27.8 75 23.9 79 79 VRB 5 7 29.99 1016 10 16 0.00 0.00
2:39 pm 14:39 Mostly Cloudy 84 28.9 75 23.9 74 74 VRB 5 7 29.97 1015 10 16 0.00 0.00
2:49 pm 14:49 Mostly Cloudy 84 29 75 24 74 74 W 5 7 29.97 1015 10 16 0.00 0.00
2:53 pm 14:53 Mostly Cloudy 84 28.9 74 23.3 72 72 WNW 6 9 29.98 1015 10 16 0.00 0.00
3:17 pm 15:17 Mostly Cloudy 84 28.9 74 23.3 72 72 W 7 11 29.97 1015 10 16 0.00 0.00
3:53 pm 15:53 Mostly Cloudy 85 29.4 75 23.9 72 72 NNW 7 11 29.97 1015 10 16 0.00 0.00
4:53 pm 16:53 Mostly Sunny 84 28.9 74 23.3 72 72 W 5 7 29.96 1015 10 16 0.00 0.03
5:53 pm 17:53 Sunny 83 28.3 76 24.4 79 79 SSW 9 15 29.96 1015 10 16 0.00 0.03
6:53 pm 18:53 Sunny 84 28.9 75 23.9 74 74 SSW 6 9 29.95 1014 10 16 0.00 0.00
7:53 pm 19:53 Mostly Cloudy 83 28.3 75 23.9 77 77 W 5 7 29.98 1015 10 16 0.00 0.00
8:53 pm 20:53 Clear 81 27.2 77 25 88 88 SSW 3 6 30.00 1016 10 16 0.00 0.00
9:53 pm 21:53 Cloudy 78 25.6 71 21.7 79 79 N 13 20 30.03 1017 10 16 0.00 0.00
10:39 pm 22:39 Mostly Cloudy with Nearby Thunderstorms 74 23.3 72 22.2 94 94 Calm 30.06 1018 10 16 0.00 0.03
10:53 pm 22:53 Mostly Cloudy with Thunderstorms 74 23.3 71 21.7 91 91 SE 3 6 30.06 1018 10 16 0.00 0.03
11:12 pm 23:12 Partly Cloudy with Nearby Thunderstorms 73 22.8 73 22.8 100 100 S 5 7 30.06 1018 10 16 0.00 0.00
11:20 pm 23:20 Mostly Clear 73 22.8 72 22.2 96 96 Calm 30.06 1018 10 16 0.00 0.00
11:53 pm 23:53 Partly Cloudy 73 22.8 72 22.2 96 96 Calm 30.06 1018 10 16 0.00 0.00

Powered by AerisWeather